Theta_e
314 314 315 317 318 319 320 321 321 321 321 321 320 318 317 317 316 316 316 316 315 315 315 314 314 314 314 315 317 317 317 318 315 312 313 312 312 312 312 314 315 314 312 313 314 316 316 315 314 313 316 319 317 318 318 320 328 336 339 334 324 324 323 321 321 318 321 323 316 312 314 317 315 309 305 304 306 306 305 304 303 301 300 300 300 300 300 299
313 313 313 315 316 317 318 319 320 321 321 321 320 319 318 317 317 316 316 316 316 315 315 315 314 314 314 315 317 316 315 318 316 313 313 312 312 312 313 314 315 314 312 312 313 314 316 317 314 315 323 321 316 319 321 317 324 338 335 326 323 328 324 319 321 316 316 319 316 312 312 314 314 310 306 308 310 305 306 306 302 303 301 300 299 299 300 298
313 313 313 314 315 316 317 318 318 319 320 320 320 319 318 317 317 316 316 316 316 316 315 315 315 314 315 315 317 316 315 317 316 315 314 312 312 312 312 314 314 313 312 312 313 313 314 316 311 316 327 323 316 322 326 319 320 328 326 321 326 333 324 316 320 318 315 316 316 312 310 312 311 309 307 310 311 306 308 308 305 305 302 301 300 298 299 298
312 313 313 314 315 315 316 316 317 318 318 318 319 319 318 317 317 316 316 316 315 316 316 316 315 315 315 315 317 316 315 318 316 315 314 312 312 311 311 312 312 312 312 311 312 313 312 312 310 317 323 320 323 325 323 319 317 318 320 320 323 323 319 317 318 318 315 313 316 315 311 311 309 307 308 310 312 309 308 308 308 308 303 301 301 298 298 298
312 313 313 314 315 315 316 316 317 317 317 318 318 318 318 317 317 316 316 316 315 315 315 317 316 315 315 315 317 316 317 320 317 314 314 313 312 312 312 310 311 312 312 311 312 313 312 310 314 326 325 321 329 327 318 315 314 315 315 316 319 317 315 317 318 316 314 312 316 316 313 312 308 307 309 310 314 313 309 307 306 305 301 300 301 297 297 296
310 311 312 313 314 314 315 316 316 316 317 317 317 317 317 317 316 316 316 316 315 315 315 316 316 315 315 314 315 315 317 319 316 314 314 313 312 312 312 311 311 311 311 312 311 312 314 313 320 329 326 323 323 320 317 314 314 315 314 314 318 317 314 316 317 316 314 313 317 317 313 311 309 310 310 308 312 313 308 307 305 302 300 299 298 297 298 297
309 309 310 311 312 313 313 314 314 314 315 315 316 316 316 316 316 315 316 316 315 315 314 315 317 316 315 315 316 319 321 320 315 314 314 313 312 312 312 311 310 311 312 311 310 316 320 318 321 322 321 320 316 316 316 314 316 318 316 315 316 314 314 316 316 316 314 314 315 313 310 311 313 312 310 308 310 310 305 301 301 299 298 297 297 297 297 296
308 308 308 309 310 310 312 312 312 313 313 313 313 314 315 315 315 315 315 315 315 315 314 315 317 316 317 317 319 325 325 319 314 313 314 313 313 312 313 312 310 311 311 311 311 316 321 319 318 317 318 317 314 315 314 314 318 319 315 316 316 313 316 317 315 316 316 313 310 309 311 314 313 309 309 311 309 307 302 299 298 298 297 297 298 298 296 295
308 308 308 308 308 309 309 310 310 311 311 311 312 312 313 313 314 314 314 315 314 315 314 315 317 316 318 316 316 324 323 316 313 312 313 313 313 312 312 312 310 310 311 311 310 311 317 318 315 314 317 316 312 314 315 315 315 315 315 317 317 314 316 316 313 316 316 312 308 309 313 312 308 307 309 311 308 304 301 300 300 298 299 298 298 297 295 294
308 308 308 309 308 308 308 309 309 310 310 310 311 311 311 312 312 313 313 314 314 315 314 315 316 315 316 315 315 320 318 314 312 311 311 312 312 312 312 311 309 310 310 311 310 311 313 314 313 314 318 317 313 312 314 313 313 314 316 316 314 313 314 313 313 314 311 309 309 310 313 311 306 307 310 309 302 300 302 301 299 298 299 298 297 296 294 293
310 309 309 309 309 309 309 308 309 309 309 310 310 310 310 311 311 312 313 313 315 314 314 315 315 316 315 315 319 321 316 312 311 310 310 310 311 311 310 310 309 310 310 311 311 311 312 311 310 312 315 315 313 312 312 311 312 312 313 314 314 315 313 309 311 312 309 309 310 310 311 310 307 308 312 308 299 299 303 301 298 299 298 297 297 296 294 293
311 310 310 310 310 310 309 309 309 308 309 309 309 310 309 310 310 311 312 313 314 314 314 314 314 316 315 315 320 321 315 313 310 310 310 310 311 311 310 310 310 309 310 311 311 310 311 311 310 312 313 312 313 313 311 310 310 312 313 313 316 323 318 309 310 311 308 310 311 310 310 311 309 309 311 305 298 299 302 300 298 298 297 297 297 296 295 294
311 311 310 310 310 310 309 309 309 309 309 309 309 309 309 310 310 310 312 313 314 314 314 315 314 314 315 318 319 316 315 313 310 310 310 310 312 313 311 310 310 310 311 311 310 310 311 310 310 312 312 314 316 311 311 311 311 311 311 314 319 326 322 310 309 309 307 311 311 310 313 315 312 311 308 301 297 300 301 299 298 297 297 297 296 296 296 294
311 311 311 311 310 310 309 309 309 309 309 309 309 309 309 309 309 311 312 314 314 314 314 314 314 313 315 319 316 313 314 312 310 311 311 310 312 313 311 310 311 311 311 311 310 310 311 310 309 311 311 313 312 307 314 320 318 315 311 318 323 320 325 318 310 311 309 310 310 309 314 316 313 312 307 299 298 301 302 300 297 297 297 296 296 296 296 295
311 311 311 311 311 310 310 309 309 309 309 309 309 309 309 309 310 311 312 314 314 314 314 315 315 314 317 319 315 313 314 311 311 312 312 312 311 312 311 310 311 311 311 311 310 310 310 310 312 315 313 310 312 315 323 326 324 321 314 323 327 317 324 325 311 311 311 309 308 309 314 315 312 313 306 298 298 301 302 300 297 297 296 295 296 295 296 295
311 311 311 311 311 310 310 310 309 310 309 309 309 309 309 309 311 312 313 314 315 314 314 316 316 315 319 319 314 314 314 312 313 313 313 313 311 310 310 311 312 311 311 310 311 311 309 313 314 313 312 311 319 330 329 326 330 328 318 320 330 320 319 321 312 310 312 311 309 309 315 315 314 312 303 297 298 300 302 301 298 297 296 295 295 295 295 295
312 312 311 311 311 311 310 310 310 309 309 309 309 308 308 310 312 312 314 314 315 316 316 318 315 315 318 316 315 317 314 312 314 315 314 313 311 310 310 310 310 309 311 310 311 312 309 312 312 311 318 317 321 331 325 326 334 332 322 319 324 318 314 317 316 311 309 311 311 310 312 312 312 312 305 299 298 299 301 300 299 297 296 295 295 295 295 295
313 312 312 311 311 311 311 310 310 310 309 309 309 309 309 310 312 312 315 315 315 315 315 316 314 314 316 314 316 316 313 312 315 314 313 313 311 310 311 309 308 309 315 315 312 315 313 315 318 322 329 322 322 330 325 325 330 326 323 320 320 318 313 315 317 311 308 309 311 311 311 310 309 310 309 304 298 299 301 300 300 298 296 296 295 295 294 294
313 313 312 312 312 311 311 310 310 310 310 309 309 309 309 311 313 313 313 313 315 315 313 316 317 315 314 313 314 313 312 314 314 313 312 313 310 310 311 309 311 314 318 321 317 317 317 320 324 325 327 325 324 325 324 330 328 320 320 320 319 318 314 313 313 310 307 307 309 309 309 309 308 308 309 307 300 299 300 299 299 298 297 296 295 295 294 294
313 313 312 312 311 311 311 311 310 310 311 311 310 311 314 316 319 320 316 313 314 312 313 318 318 318 315 314 314 313 314 314 312 313 312 311 309 310 310 310 317 319 319 326 322 316 317 321 323 323 324 332 332 322 319 325 319 313 317 316 315 314 313 311 310 309 307 307 311 309 307 308 307 307 307 307 303 300 299 299 299 299 297 296 296 295 295 294
313 312 311 311 311 311 311 311 311 311 311 313 311 311 313 313 314 316 315 316 312 305 311 315 311 315 314 312 314 313 314 315 312 312 311 310 309 311 313 312 317 321 320 323 320 317 318 318 325 331 324 323 326 317 313 315 311 311 314 313 314 313 312 310 307 309 308 307 311 311 309 308 307 307 307 308 307 304 301 300 300 299 298 297 296 295 295 295
312 312 311 309 310 310 311 311 311 311 312 312 310 307 307 307 310 309 308 317 315 305 310 312 309 313 312 310 313 311 314 319 316 314 311 310 310 312 316 315 318 323 319 316 319 324 322 320 328 330 317 312 314 311 311 313 311 313 313 312 315 313 314 314 309 310 309 307 311 312 309 308 307 307 307 307 308 306 304 303 302 301 299 298 297 296 295 295
312 311 310 308 309 309 310 312 312 311 311 311 309 306 306 308 311 310 309 316 319 314 316 318 316 319 317 313 312 312 317 319 318 316 311 309 312 313 316 317 319 322 318 316 321 323 322 324 323 316 311 312 313 311 312 312 311 314 313 313 317 314 315 319 314 312 311 308 309 310 308 307 307 307 307 307 307 307 305 305 304 302 301 300 298 297 296 295
312 311 310 309 308 309 310 312 311 310 311 312 309 305 307 309 309 310 313 315 317 318 318 316 316 322 322 314 311 315 318 316 316 313 308 310 314 312 314 318 319 320 318 320 322 320 321 319 311 309 311 313 314 312 311 312 316 320 316 313 316 315 314 317 315 311 312 312 307 308 311 313 311 308 309 309 307 307 306 305 305 302 301 301 300 299 297 296
313 312 310 309 309 310 310 311 310 309 312 312 309 305 305 309 309 309 313 313 315 317 314 311 314 320 317 311 311 313 314 314 314 310 305 308 313 311 312 314 315 320 321 318 317 319 319 311 306 311 311 311 314 315 316 316 318 324 321 314 313 315 312 313 314 311 316 319 309 309 316 318 314 311 312 312 310 312 309 306 306 303 301 301 300 299 298 297
313 312 309 309 309 310 311 312 310 309 312 311 310 307 305 309 310 309 313 312 313 318 316 312 315 317 313 311 312 311 315 315 309 306 305 306 310 310 313 312 311 318 319 316 317 319 315 307 308 315 314 312 312 315 319 316 316 321 319 314 312 312 311 312 313 311 318 319 309 310 318 317 314 314 317 315 313 315 312 309 308 305 302 301 300 299 298 296
312 311 309 309 309 310 313 314 311 311 313 312 311 307 305 309 309 308 310 309 311 319 320 315 313 314 313 311 309 311 319 317 306 304 305 306 307 308 314 316 312 313 312 312 318 318 312 309 311 314 315 314 313 318 319 314 319 322 315 313 315 312 312 312 309 309 314 313 308 310 312 312 313 314 314 312 311 312 310 310 308 305 304 301 300 299 298 296
312 311 309 308 309 310 312 313 311 310 312 311 307 305 305 308 308 310 310 306 311 318 320 317 312 312 312 308 309 313 313 312 312 307 303 304 306 308 314 318 318 316 310 313 322 318 311 313 315 314 315 316 318 323 319 313 319 320 310 310 312 309 311 311 308 309 310 309 311 311 307 310 314 313 310 307 309 312 312 313 312 308 306 303 300 299 298 297
312 311 309 308 310 310 311 312 310 309 310 307 304 306 307 306 307 310 309 306 313 319 316 315 312 311 313 310 312 315 311 311 313 309 304 304 305 308 312 315 319 316 308 312 321 317 311 311 314 316 317 317 319 316 310 312 316 311 306 309 311 311 311 310 310 311 312 313 316 314 309 313 317 315 310 307 308 313 313 314 313 311 308 304 302 299 298 296
311 311 309 310 311 311 311 311 309 308 309 306 304 305 306 309 311 308 307 308 313 317 313 313 314 314 316 315 316 314 312 313 310 307 307 307 307 308 307 308 314 316 316 317 319 316 310 305 307 313 314 315 315 308 303 309 310 306 308 313 315 315 310 309 311 312 316 318 316 314 310 313 318 316 311 311 314 317 316 315 314 313 312 308 303 299 298 296
311 310 309 310 312 311 311 310 308 308 308 305 304 306 308 317 319 312 309 309 309 313 315 315 315 315 317 320 321 315 312 315 311 308 310 308 309 311 308 309 313 319 325 323 318 316 311 307 309 311 310 310 313 310 304 306 306 307 314 317 318 319 316 316 317 316 319 319 315 311 308 309 315 314 312 314 315 316 318 318 318 317 316 312 305 299 297 296
311 310 309 310 312 311 310 310 309 308 306 304 306 310 314 317 315 312 311 310 309 314 318 320 316 315 317 318 320 316 314 317 312 309 313 311 311 313 312 315 317 319 325 323 319 320 317 314 311 308 307 308 316 316 308 307 308 310 315 318 319 322 322 323 322 319 321 320 311 306 307 309 311 311 312 313 314 314 314 314 316 315 313 311 306 300 296 295
312 310 309 310 312 312 310 310 311 308 304 304 308 314 319 315 310 311 313 311 310 313 318 321 318 317 317 318 322 318 314 319 314 308 312 312 311 313 314 317 317 316 321 319 317 320 320 316 309 307 309 310 314 315 313 313 311 309 313 319 321 323 326 327 323 317 319 319 309 303 308 312 311 312 312 309 310 312 312 311 311 310 309 307 305 301 297 294
313 311 309 310 312 312 311 310 311 309 304 305 311 316 318 314 310 312 313 311 311 314 318 320 317 316 317 320 324 320 316 319 315 310 312 312 312 316 316 315 313 316 321 318 317 321 320 318 314 312 313 311 309 311 316 318 311 307 313 317 319 326 329 328 326 321 319 321 312 304 310 317 314 313 313 311 309 309 310 310 307 305 304 302 301 300 296 293
314 312 309 310 311 312 312 311 311 310 305 306 312 315 313 311 312 314 315 312 312 317 318 317 317 317 318 320 322 320 317 317 316 313 314 314 316 319 319 315 312 316 322 319 319 319 316 318 317 310 308 308 307 309 312 316 312 309 311 314 317 322 322 319 321 319 316 317 314 309 313 317 312 309 311 312 312 308 307 307 305 302 301 301 301 299 296 293
313 311 309 310 310 311 313 311 311 310 307 306 311 314 310 309 315 316 314 312 315 320 318 316 319 319 320 323 322 318 314 314 315 315 315 314 316 318 319 319 313 312 316 317 320 319 316 318 313 305 306 305 304 306 307 313 315 310 309 314 314 313 316 321 318 312 311 314 316 314 315 312 310 310 308 307 309 307 304 304 304 301 300 302 302 299 295 292
313 311 309 310 309 312 313 310 311 310 306 306 311 313 310 310 316 316 314 313 315 321 320 315 316 319 322 324 322 319 315 313 314 316 318 316 316 317 316 318 315 311 313 315 318 319 316 317 312 307 312 305 298 303 305 306 309 311 314 314 309 307 313 319 318 315 314 315 317 316 314 311 311 311 307 306 310 309 306 305 302 300 300 302 302 298 294 292
313 310 310 310 309 311 312 311 311 308 304 305 310 313 313 311 311 312 315 315 313 318 319 313 312 317 322 322 322 319 315 316 315 316 319 316 315 317 314 315 315 311 311 313 316 318 314 313 314 307 309 305 299 304 309 304 302 309 312 307 307 314 315 313 315 318 318 316 318 318 313 310 311 311 309 309 312 312 310 308 303 300 300 302 301 297 294 292
312 311 311 310 309 310 312 311 310 305 303 305 308 311 314 312 310 315 321 319 315 317 316 314 311 312 318 321 322 319 315 315 316 315 317 316 315 316 313 315 316 310 310 312 314 316 313 312 315 305 301 305 304 307 313 308 301 303 304 302 306 314 315 314 313 315 318 316 316 316 313 311 313 316 315 312 311 311 312 312 305 301 300 299 299 297 294 292
312 312 312 310 309 311 311 311 309 306 305 306 307 309 312 311 312 317 319 315 314 315 313 316 314 310 315 319 319 320 316 315 315 313 316 315 314 315 312 313 316 311 309 311 312 314 313 313 314 309 302 305 308 309 311 311 306 304 305 306 305 305 310 313 310 311 315 316 316 317 315 312 313 316 316 315 315 312 312 314 308 304 303 298 296 296 294 291
311 313 312 310 310 311 311 311 311 310 310 310 309 308 310 311 312 314 313 310 312 313 312 319 320 312 313 315 315 317 317 316 315 313 315 316 314 315 312 312 316 312 309 311 311 313 315 314 314 314 309 308 310 308 306 309 309 307 308 309 306 305 309 313 311 309 310 312 317 318 315 312 311 314 316 317 317 314 313 314 309 308 307 299 294 295 294 292
312 313 311 310 310 310 311 312 313 313 313 312 311 310 310 312 313 313 312 310 310 311 311 316 319 315 313 314 315 317 317 319 317 313 315 316 313 313 313 312 313 310 310 313 311 312 316 316 314 315 314 310 306 303 302 305 306 306 309 309 307 306 309 313 313 311 309 310 311 312 314 313 310 314 319 319 317 315 312 309 307 308 306 299 294 294 293 291
313 312 308 308 310 310 311 314 314 314 314 313 311 311 311 312 313 313 313 311 310 311 311 312 313 313 312 313 315 316 316 318 318 315 317 318 315 313 313 312 311 310 312 313 311 311 314 316 314 313 315 314 306 302 301 302 303 306 309 307 306 306 307 310 311 311 313 312 309 310 312 311 310 315 317 313 311 308 303 301 303 306 303 297 295 293 292 291
313 311 307 307 309 310 311 313 313 314 315 314 313 313 311 311 313 312 312 311 311 312 311 309 310 311 311 313 314 314 313 313 314 315 315 318 318 313 311 312 311 311 312 312 312 312 312 315 315 313 315 316 311 307 307 305 303 307 309 307 306 306 307 308 308 308 312 311 309 311 312 310 312 312 308 304 305 305 301 298 299 301 301 298 295 292 291 290
314 312 308 306 307 310 311 312 312 313 314 314 315 314 313 312 313 312 311 310 311 312 311 311 312 312 312 314 313 312 312 311 312 313 313 316 317 310 308 312 311 309 312 312 311 311 313 317 315 312 313 312 310 311 313 311 306 305 308 307 305 305 306 307 308 307 310 310 308 310 312 311 311 309 305 305 306 304 303 300 297 296 297 296 294 292 291 290
315 314 311 307 307 309 310 311 311 311 311 313 314 314 313 313 313 313 312 311 310 311 311 313 314 311 311 313 311 311 312 311 311 313 314 318 318 310 306 307 308 310 314 314 311 312 317 318 313 311 312 310 309 309 311 312 310 308 309 308 305 305 305 306 308 309 310 310 309 309 310 310 310 309 308 309 308 306 305 304 301 298 295 294 293 292 291 289
314 316 314 310 309 309 310 311 311 310 311 312 313 314 313 313 313 313 313 312 312 311 311 311 312 311 311 312 311 310 311 311 311 311 313 316 315 309 304 303 304 307 311 312 310 313 319 316 311 311 311 310 310 310 310 312 313 311 310 308 306 306 305 306 308 308 309 311 311 310 310 310 310 309 308 308 308 308 308 308 307 303 299 296 294 292 291 289
314 316 315 313 312 311 310 311 311 311 311 310 310 312 313 313 313 312 312 312 312 311 311 312 312 311 311 311 310 310 310 310 312 311 311 313 312 310 307 306 305 305 307 308 307 310 315 313 311 312 311 310 310 310 310 311 310 309 309 309 307 306 306 306 306 306 308 310 310 309 309 310 310 309 309 309 309 309 308 309 308 305 300 297 294 292 291 290
314 315 315 314 314 314 311 311 311 311 312 310 309 310 310 311 311 311 313 313 312 311 311 312 311 311 311 310 310 310 310 310 311 312 311 311 312 313 312 310 308 304 305 307 307 309 311 312 311 311 311 311 311 310 310 309 308 309 309 309 308 306 305 305 305 305 306 307 308 308 309 310 309 309 309 309 309 309 309 308 307 304 301 298 295 294 292 290
315 314 315 314 314 314 312 311 311 312 312 311 311 310 309 309 309 309 311 313 312 312 311 311 311 311 311 311 310 310 310 310 310 311 312 312 313 313 313 313 313 307 303 306 308 307 308 311 313 312 312 312 311 310 312 311 309 310 309 309 309 308 307 306 305 305 305 306 307 307 308 308 308 308 309 308 309 308 308 308 307 306 304 300 297 295 292 290
315 313 314 315 313 313 313 312 312 312 312 312 312 311 310 310 310 309 309 310 311 312 311 311 311 311 311 312 312 310 310 310 310 310 312 314 314 313 313 315 316 312 306 305 307 307 308 311 314 313 313 313 312 313 313 311 310 310 310 310 309 309 309 309 308 306 305 306 306 307 308 308 307 308 308 308 308 307 307 307 306 306 305 301 298 296 294 291
314 311 312 315 314 312 314 313 312 312 313 312 312 311 311 311 310 309 309 309 309 309 310 311 312 311 312 312 311 310 310 310 310 310 310 312 313 313 313 314 315 314 309 306 306 307 308 310 311 312 313 312 312 314 313 311 311 312 311 311 310 310 310 309 310 309 307 306 307 308 309 308 308 308 308 308 308 308 307 307 306 306 305 301 298 297 294 292
Wind_Speed
9 9 10 11 12 13 14 15 15 16 17 18 19 20 21 21 22 20 16 15 15 12 6 2 5 4 5 5 1 5 6 5 4 8 7 4 6 6 7 8 8 10 11 10 10 5 2 5 7 8 4 4 4 1 2 3 3 4 3 3 1 3 4 5 7 7 4 4 5 7 6 7 5 3 2 2 5 3 2 3 3 4 4 1 4 16 28 26
9 9 10 10 11 12 13 14 15 16 17 18 19 19 20 21 21 21 18 14 14 13 9 4 4 6 7 6 3 5 8 6 2 7 7 4 6 6 7 8 8 10 11 10 11 8 5 5 7 7 4 2 3 1 2 2 3 4 3 3 2 5 4 5 7 6 2 2 6 6 4 5 5 6 5 3 2 1 3 2 4 3 3 3 9 19 24 23
9 10 10 11 11 12 13 14 15 15 16 18 19 19 20 20 21 21 20 15 12 12 11 7 3 6 8 7 4 5 9 5 1 2 4 4 4 5 7 8 8 9 10 9 9 8 5 3 2 3 4 3 2 2 4 3 2 2 3 3 4 5 4 4 6 7 4 2 6 4 3 3 3 6 5 4 4 4 6 6 2 4 6 6 8 15 20 21
9 10 11 11 12 13 13 14 15 16 17 17 19 20 20 21 21 21 21 18 13 11 11 10 6 5 8 8 5 6 7 3 1 1 1 3 3 5 6 7 8 8 8 8 8 7 5 4 3 3 4 3 4 3 3 3 1 1 4 2 6 2 2 4 5 6 2 1 4 3 3 2 3 4 4 7 6 5 9 10 11 12 13 13 9 12 18 18
9 10 11 12 12 13 14 15 15 16 17 17 18 20 21 21 21 22 22 20 15 11 10 10 8 5 5 7 7 6 6 3 2 2 1 2 2 4 5 7 9 8 8 8 7 7 7 6 6 6 5 3 5 5 2 2 1 1 1 3 5 2 1 4 4 4 3 4 4 4 3 4 3 2 5 10 8 7 7 10 12 11 14 17 13 14 15 14
9 10 11 12 13 13 14 15 16 16 17 18 18 19 21 21 22 22 22 22 18 12 10 9 7 6 3 5 6 4 3 1 2 1 2 2 2 4 5 6 8 7 7 7 7 8 8 7 6 5 3 3 3 2 0 4 2 1 1 1 4 4 2 3 1 3 5 6 4 4 4 4 5 4 5 10 12 7 3 7 8 8 12 16 15 14 12 12
9 10 11 12 13 13 14 15 15 16 17 17 18 19 20 21 22 22 23 23 19 14 11 9 6 4 2 1 3 1 2 3 2 1 3 3 3 5 5 5 7 6 6 8 9 6 6 8 6 4 3 3 1 1 0 4 4 4 1 1 2 4 4 3 1 1 5 6 5 4 3 5 8 5 2 9 15 5 3 4 8 11 13 15 13 11 11 12
10 10 11 12 13 14 15 15 16 16 17 17 18 18 19 21 22 22 23 23 21 15 12 10 5 3 0 1 1 3 2 4 1 1 3 3 4 5 4 4 6 5 5 10 8 3 4 6 3 3 3 2 2 0 2 3 5 4 2 2 1 3 6 4 2 1 3 4 2 5 3 6 8 3 1 11 14 2 3 3 9 12 13 11 11 10 10 11
11 11 12 12 13 14 15 16 17 17 18 18 18 18 19 21 21 23 23 23 22 16 12 10 5 4 3 2 4 2 4 3 1 2 3 3 3 4 3 3 6 5 7 9 6 4 3 2 2 3 3 2 3 1 2 2 1 1 3 3 2 3 5 3 3 4 4 3 3 5 6 6 2 0 5 11 8 4 6 7 8 11 11 10 10 10 10 10
12 13 13 14 14 15 16 17 18 18 19 19 19 19 19 21 21 23 23 23 23 16 11 10 5 4 5 2 6 1 4 2 1 2 2 2 1 2 3 5 6 5 6 7 6 6 3 4 4 4 5 3 2 1 1 1 2 3 3 4 4 3 5 1 4 4 1 2 4 6 7 5 2 1 6 5 4 7 8 8 7 10 11 11 9 8 10 11
13 13 14 14 15 16 16 17 18 19 20 20 21 20 20 21 22 23 23 23 22 13 11 10 4 3 4 4 5 3 4 2 1 1 1 1 1 2 5 5 5 5 5 6 6 5 4 6 7 5 2 1 2 1 1 2 3 2 1 3 5 4 4 1 3 4 0 2 5 6 5 3 2 2 6 2 5 7 9 9 8 10 10 10 9 8 9 11
13 14 14 15 15 16 17 18 19 20 21 21 22 22 21 22 22 24 24 24 19 11 10 8 3 4 1 3 3 6 5 4 2 0 1 1 2 4 7 6 5 5 4 5 5 4 5 5 7 5 0 2 1 1 1 2 3 1 2 2 7 7 5 1 1 2 3 3 5 5 4 4 5 8 5 4 7 5 8 9 8 9 8 8 8 7 7 11
15 14 15 15 16 16 17 18 19 21 22 22 23 23 22 23 24 25 25 24 16 8 8 6 4 5 1 1 4 6 6 5 2 0 1 2 3 4 7 6 5 6 5 6 6 5 5 3 4 4 2 4 1 1 3 3 2 1 3 2 4 8 5 1 1 1 4 3 4 4 4 6 10 12 4 5 8 7 7 9 8 9 7 7 8 7 7 11
18 17 16 16 17 17 18 18 20 21 22 23 24 23 23 24 25 26 25 21 11 6 6 3 3 3 2 3 4 4 6 6 3 2 1 2 2 3 5 5 4 6 7 8 7 6 5 2 5 5 2 3 0 0 4 6 3 0 1 2 2 3 4 5 0 4 4 2 2 4 3 8 10 9 6 7 9 11 10 10 9 9 8 8 8 8 8 10
20 20 18 17 17 18 18 19 20 21 22 23 24 24 24 24 26 27 22 14 5 4 4 1 3 3 1 4 3 3 6 6 4 3 1 2 2 2 3 4 5 7 8 8 7 6 4 3 5 4 1 2 3 3 3 4 4 3 1 3 3 0 4 8 3 5 4 1 2 4 3 9 11 8 5 8 8 10 11 10 10 10 10 9 8 9 8 8
21 21 21 19 18 18 18 19 20 21 23 23 24 24 23 24 27 24 15 7 4 5 2 1 5 4 1 4 2 2 5 5 4 4 2 1 2 2 3 5 5 6 6 6 6 5 5 5 3 2 0 2 4 4 3 4 4 4 1 3 4 1 4 6 3 2 2 0 0 3 3 7 8 5 3 7 9 9 9 10 12 12 11 10 8 8 8 7
20 22 23 21 19 18 18 19 20 21 22 22 23 24 23 23 23 16 8 4 3 3 1 1 4 3 1 3 1 3 3 3 4 3 2 0 2 2 3 4 4 5 5 5 4 3 4 4 1 1 2 3 3 4 4 4 4 4 3 1 4 3 3 4 4 3 2 2 4 4 5 10 12 5 4 7 9 10 10 11 13 12 11 10 8 8 8 9
21 22 23 22 21 19 18 18 19 20 22 22 22 24 23 19 15 8 3 1 1 1 2 1 3 2 3 2 1 2 1 2 3 2 2 1 1 2 3 4 4 4 5 4 2 2 2 3 2 1 3 4 2 5 2 4 3 3 3 2 3 3 4 5 5 3 3 1 5 4 6 13 18 12 6 9 10 11 13 13 12 11 11 10 9 9 9 11
21 22 23 23 22 20 18 17 17 19 21 21 21 21 16 10 7 3 1 2 1 0 1 2 2 2 3 3 2 0 2 2 2 2 2 2 2 3 5 5 4 4 3 1 2 2 1 2 3 1 2 2 3 5 7 8 7 6 5 4 4 5 6 6 6 4 3 3 7 7 9 12 17 17 10 8 10 12 13 11 10 9 9 10 10 10 11 13
20 21 22 23 22 20 18 16 16 17 19 20 21 17 8 4 5 4 3 1 4 3 2 5 4 3 4 3 2 1 1 1 1 2 3 3 3 3 3 4 5 4 2 2 2 2 4 1 2 5 7 7 8 7 6 5 6 5 4 3 5 6 7 6 4 4 2 1 9 9 9 12 15 18 14 7 8 11 12 12 12 9 9 11 12 14 14 15
20 21 21 22 22 20 17 15 14 15 15 15 16 10 1 1 2 4 5 6 6 3 4 6 4 5 6 3 1 1 1 1 1 1 4 3 3 3 1 3 3 0 1 2 1 2 4 1 7 9 9 7 5 6 7 5 5 4 3 3 5 5 8 8 3 4 1 3 7 7 6 12 15 17 15 7 8 12 13 14 14 12 12 11 13 16 15 12
20 21 22 22 22 19 16 14 13 13 12 11 9 3 2 2 2 2 1 5 8 2 3 4 2 5 6 3 3 2 2 2 4 3 5 3 2 3 3 3 4 4 2 2 1 4 3 5 10 8 5 5 5 5 7 5 4 3 2 2 4 4 5 8 3 5 2 3 5 7 7 12 15 17 18 14 12 13 12 14 15 13 13 13 14 15 13 11
20 22 23 22 22 20 15 12 12 12 10 7 6 2 2 2 3 2 1 2 7 4 1 2 3 4 3 3 5 5 2 4 4 5 6 6 1 3 3 4 4 3 1 4 5 2 2 6 7 4 6 8 5 4 7 5 2 3 3 2 5 4 2 4 4 5 3 3 4 8 10 12 13 15 17 15 11 11 11 12 12 11 13 15 14 13 13 14
19 21 22 20 21 19 12 11 11 8 7 5 4 1 2 2 3 2 1 1 5 5 3 4 3 4 3 2 6 7 2 4 3 3 5 7 3 2 3 4 4 2 3 6 7 6 6 5 2 5 5 7 5 3 5 4 2 3 5 6 6 5 5 5 4 6 5 3 3 6 11 9 6 9 12 6 3 7 8 8 9 10 11 11 10 12 14 15
18 21 21 19 19 17 11 10 8 4 5 3 1 0 2 3 3 2 2 1 3 6 3 3 2 3 5 4 5 6 2 2 3 2 3 5 5 2 1 2 3 3 4 4 6 5 8 4 4 5 3 4 6 4 5 7 2 4 5 8 9 7 6 4 5 6 5 4 3 6 7 8 1 4 9 4 4 6 5 6 9 9 8 8 10 12 12 12
17 20 20 17 18 16 8 5 4 5 5 2 1 1 2 3 3 1 2 3 3 6 2 2 1 3 5 3 2 4 2 2 3 0 2 2 3 2 2 1 0 2 4 5 3 3 3 1 3 5 4 4 5 4 5 7 4 3 4 6 6 3 1 2 4 4 1 3 3 4 1 9 2 2 9 8 6 9 8 9 10 8 7 9 11 11 10 11
17 18 18 16 16 13 5 3 5 4 2 1 0 1 2 2 2 2 2 3 4 4 2 1 0 3 4 1 0 4 3 3 1 2 2 1 1 2 2 3 1 1 3 3 1 3 2 3 4 4 5 4 4 5 6 8 7 3 4 4 6 5 3 3 2 1 4 2 4 2 4 8 7 5 9 8 7 10 13 15 12 8 9 11 12 11 10 12
16 16 18 15 13 10 6 7 8 3 0 1 0 1 2 2 2 1 3 2 5 1 2 1 0 2 1 1 3 4 2 2 2 1 1 2 0 3 1 6 6 4 2 5 5 5 3 4 4 5 4 3 6 5 7 10 5 5 5 5 6 6 4 4 4 3 2 3 5 5 5 5 9 5 2 1 5 9 12 16 14 9 9 11 11 11 11 11
14 15 16 12 10 10 8 8 7 3 1 1 0 1 2 3 1 3 3 4 4 1 1 0 2 1 2 2 1 2 1 1 1 3 2 2 1 4 2 5 6 5 1 3 6 5 1 4 7 7 5 5 5 2 5 7 3 4 6 5 5 5 4 4 3 2 2 2 8 7 7 4 8 4 3 2 3 8 11 13 11 9 8 8 9 10 10 9
13 14 14 11 10 10 8 7 7 6 4 2 1 2 3 2 2 3 3 5 2 0 1 1 2 1 4 4 2 2 1 2 1 2 3 1 3 6 1 3 6 5 1 3 4 4 2 1 3 4 4 5 4 3 1 3 4 5 6 4 5 4 4 4 1 2 2 6 9 6 12 8 6 3 5 4 5 8 9 8 8 8 7 7 8 8 9 9
13 13 12 12 11 8 5 4 5 4 4 2 2 4 2 2 3 4 8 6 2 2 1 1 1 2 5 5 2 1 1 2 1 2 1 1 2 5 2 1 3 3 3 5 4 4 4 0 2 2 2 5 6 5 3 3 3 5 4 4 4 4 3 4 4 4 0 7 6 3 8 8 7 6 4 5 6 7 8 7 8 9 8 7 6 7 8 9
14 11 11 13 13 10 9 7 6 6 3 4 3 3 4 1 2 4 5 3 2 3 4 3 2 3 4 2 1 3 3 2 2 4 4 3 2 3 3 5 5 1 3 5 4 5 3 4 3 1 2 4 6 4 3 4 4 4 4 4 3 3 3 3 3 1 3 7 3 1 3 5 11 10 7 9 10 9 9 8 9 9 8 7 6 7 7 7
14 9 11 15 14 13 12 11 8 6 1 6 2 4 6 3 6 5 4 4 3 3 2 3 2 3 5 2 2 3 3 3 3 3 2 3 2 5 5 5 6 2 3 4 1 3 4 4 1 2 2 3 8 5 2 2 2 5 5 4 4 2 0 3 4 2 5 7 3 3 3 4 9 8 11 16 16 13 10 9 9 7 7 7 6 7 7 7
16 10 11 15 15 14 12 11 9 4 1 3 3 5 4 7 5 5 8 8 3 1 2 3 3 3 4 3 4 4 3 4 5 5 2 2 2 5 6 6 5 2 2 2 1 2 4 7 3 6 2 4 9 6 4 5 4 4 5 5 5 5 4 5 4 4 7 6 3 3 2 4 5 3 7 12 11 10 8 9 8 5 6 5 4 6 6 7
17 14 13 15 15 16 14 13 10 4 2 2 5 4 8 9 3 4 7 6 2 0 1 2 4 4 3 3 3 4 4 4 3 5 4 4 4 5 5 7 8 5 5 3 2 2 4 8 5 2 1 5 6 2 4 7 3 2 3 4 3 4 4 2 3 4 1 5 5 3 4 6 4 4 7 6 6 7 6 7 7 7 5 3 4 6 6 7
17 15 14 14 16 19 17 13 10 6 3 4 5 6 11 8 4 5 5 5 5 4 4 1 3 4 4 3 3 5 3 2 2 4 4 4 4 5 4 5 9 11 9 6 3 2 2 6 3 2 1 2 4 2 2 2 3 2 3 4 5 4 5 2 3 1 4 3 6 2 6 9 4 6 7 3 6 8 6 8 10 7 4 3 7 8 7 8
17 13 11 13 15 18 17 13 9 7 2 4 7 10 8 5 6 6 4 4 4 6 7 3 3 6 6 4 4 6 4 1 2 4 4 3 3 6 7 4 6 15 15 8 3 4 3 4 3 2 1 2 1 2 2 2 3 5 3 5 3 2 4 3 1 3 3 3 6 4 9 12 7 7 3 5 5 9 8 11 10 6 3 6 9 8 7 8
16 10 9 15 18 17 17 14 12 8 2 3 11 12 5 4 6 6 5 5 3 4 6 7 6 6 7 6 4 5 7 4 4 5 4 3 5 5 8 5 6 13 15 8 3 3 3 3 4 2 2 2 2 2 1 3 2 4 3 3 3 3 2 2 2 2 2 3 6 8 12 13 8 8 7 4 8 8 9 10 9 7 7 9 10 9 8 8
15 6 6 14 20 21 21 18 13 7 2 6 13 12 5 5 5 4 7 6 4 4 6 7 6 3 4 6 3 4 7 7 7 5 4 5 5 4 8 6 5 8 10 9 6 3 3 3 4 1 2 1 2 2 5 2 1 2 1 1 1 2 4 3 3 3 3 3 6 9 12 13 7 7 9 9 9 10 10 9 9 10 11 11 10 8 8 9
11 3 3 10 20 25 26 19 10 5 5 9 11 7 2 3 4 6 9 8 4 3 5 6 5 4 4 6 4 4 6 6 6 5 4 5 4 4 7 7 5 4 2 4 4 2 3 3 4 1 2 1 3 5 8 9 7 4 3 2 2 1 2 1 2 2 4 4 4 3 9 16 8 6 8 10 8 10 11 10 9 10 11 11 10 9 9 9
7 3 3 11 25 30 25 13 5 5 6 8 8 5 1 1 3 6 7 6 4 2 2 5 7 6 5 6 4 3 4 4 5 5 4 5 5 5 8 9 9 8 4 3 2 4 4 3 5 3 2 5 6 2 2 6 7 7 7 7 8 6 4 1 5 3 3 4 5 4 7 17 8 6 7 7 7 9 11 11 10 9 11 11 10 10 10 10
4 4 2 15 32 34 21 7 5 5 5 8 7 4 2 2 3 4 4 4 4 3 0 2 7 7 5 5 4 5 6 4 6 6 5 6 9 8 7 8 11 12 8 4 2 3 3 3 3 5 6 6 4 1 1 2 1 2 5 5 6 7 7 6 8 5 2 2 2 4 4 17 8 6 6 6 7 8 9 9 8 8 10 10 9 10 9 9
5 4 4 20 37 32 14 5 6 5 6 8 7 5 3 2 2 4 5 6 5 4 3 4 6 7 6 4 4 5 6 5 7 8 4 5 9 9 7 10 11 10 6 3 2 1 2 2 3 6 5 3 3 3 2 3 3 2 6 4 6 8 8 8 6 3 2 4 3 5 5 17 8 4 4 4 4 5 6 6 8 8 7 8 9 9 8 8
5 3 3 20 37 27 10 7 9 8 8 9 10 10 5 3 5 6 6 8 7 5 7 8 4 4 6 4 6 7 8 6 7 7 6 6 7 5 7 13 12 9 6 4 5 5 3 2 3 3 5 5 5 3 2 2 1 4 5 4 7 11 7 2 0 2 3 8 8 5 11 18 7 3 2 1 2 7 7 6 7 8 7 7 8 7 7 7
4 3 1 15 28 20 7 6 6 7 11 13 14 13 9 6 6 8 8 9 7 4 4 6 3 4 5 4 4 7 8 8 8 5 6 7 4 2 5 12 14 11 4 1 4 7 6 4 5 6 8 10 10 7 3 3 3 3 4 5 10 15 12 6 2 4 9 9 9 9 18 18 13 10 6 3 5 9 9 7 7 8 8 7 6 7 7 8
4 4 2 6 11 10 7 5 4 4 9 12 10 10 14 13 7 4 7 9 8 4 2 3 1 3 5 6 7 9 10 11 8 3 5 6 3 3 1 6 10 6 2 3 6 8 3 3 8 13 14 14 15 11 4 6 5 5 8 11 14 16 16 11 7 7 10 6 7 17 23 17 22 27 19 12 13 13 13 11 8 8 9 8 7 8 8 8
5 5 7 7 4 6 9 8 7 7 5 7 7 6 12 16 10 4 7 8 8 7 5 5 4 5 7 10 10 11 10 9 7 9 12 9 3 3 1 1 4 3 3 1 5 5 2 6 14 18 19 18 19 16 6 8 7 9 11 14 16 16 16 14 13 15 11 5 10 23 22 17 26 32 25 20 18 16 17 15 10 9 9 8 8 8 7 8
6 4 6 10 6 7 11 12 14 13 9 8 8 6 8 12 12 9 7 4 4 8 8 7 11 16 18 14 9 9 8 8 10 14 17 11 4 1 1 0 2 2 1 1 3 2 3 9 14 16 17 19 20 18 8 7 7 8 10 15 17 17 17 18 22 24 18 11 18 25 23 22 28 30 25 21 18 17 19 15 8 7 8 7 8 8 9 11
6 2 3 8 8 10 13 16 18 16 15 13 9 10 12 16 18 13 6 3 5 9 12 13 18 22 20 14 9 8 8 10 14 15 13 9 4 3 2 3 2 0 2 2 3 1 3 8 13 14 14 17 20 19 11 8 10 11 13 19 19 16 17 21 26 25 19 19 25 28 25 27 30 27 22 21 18 14 15 14 9 8 8 8 9 10 11 12
8 3 6 7 8 9 8 10 13 12 14 14 11 12 16 19 22 15 8 9 10 7 11 20 23 17 13 13 13 14 18 20 20 15 8 6 5 4 4 6 3 1 1 4 2 2 5 7 10 9 9 15 20 17 11 11 13 15 19 25 24 18 18 24 25 18 14 20 27 27 24 26 29 24 18 19 18 13 14 17 16 14 11 9 10 11 11 12
13 5 7 5 5 10 8 7 11 10 11 12 13 15 17 21 25 19 9 11 15 12 13 21 24 13 7 11 16 23 27 25 20 15 7 6 7 6 5 7 7 5 4 4 2 3 6 4 2 2 6 15 16 9 7 7 6 11 21 30 29 22 20 24 20 13 15 20 23 21 19 23 25 20 15 17 16 14 17 20 18 16 12 10 11 12 13 13
13 3 6 6 5 9 10 8 9 10 10 12 17 19 19 21 22 16 8 8 17 20 15 15 17 11 7 13 22 27 25 20 16 16 10 6 6 6 6 6 9 9 7 6 4 3 5 4 3 4 8 13 8 2 5 4 1 10 20 25 26 23 22 22 19 17 20 19 16 16 20 25 21 15 16 20 18 16 19 18 15 14 11 10 13 14 13 14
Wind_Direction
18 15 13 13 15 16 16 17 17 17 16 17 19 21 21 19 20 22 18 12 10 12 10 273 231 235 212 201 329 356 5 7 35 66 72 41 16 15 10 9 14 12 14 13 17 33 358 358 353 7 95 105 14 290 26 33 65 52 86 79 81 180 201 187 180 194 176 195 200 195 180 143 161 189 163 67 44 59 72 2 330 343 1 43 128 141 150 156
14 12 9 7 6 7 9 9 11 11 11 11 11 12 15 16 15 17 19 14 5 4 4 344 246 233 221 222 277 337 350 345 14 54 52 35 16 11 11 16 17 16 17 17 21 32 27 346 335 11 61 69 352 339 38 21 63 78 116 61 269 203 207 196 178 191 197 194 185 190 184 170 184 163 153 164 219 215 153 263 340 10 15 79 125 140 151 159
9 8 6 4 1 1 0 1 3 4 6 6 5 5 8 11 11 11 14 13 4 359 355 351 293 243 233 236 267 330 340 343 6 33 28 21 13 5 13 19 18 21 21 25 29 31 32 351 331 33 51 62 353 9 39 13 55 141 112 58 254 218 233 230 182 198 239 202 165 181 177 200 214 151 159 177 178 209 201 205 188 198 199 169 158 153 157 165
4 3 2 1 358 357 356 356 355 356 359 1 2 0 0 3 6 6 8 9 2 355 350 346 332 271 244 243 255 314 337 11 209 254 11 6 8 3 9 15 17 24 24 33 42 36 36 34 62 66 60 57 337 19 54 346 22 140 105 143 236 209 258 241 192 206 236 151 158 149 131 201 224 153 171 151 146 242 235 216 200 194 182 175 182 169 165 168
358 356 356 356 354 353 352 352 351 351 352 355 357 357 356 357 359 1 2 4 359 349 348 344 335 317 264 243 246 298 354 58 216 242 10 343 358 356 357 4 11 21 23 35 45 47 43 34 55 48 49 60 346 29 67 298 82 75 92 187 222 160 266 258 197 192 143 100 92 112 160 191 164 161 186 164 184 229 228 225 212 193 175 172 175 171 168 168
350 349 349 348 348 347 346 347 346 346 346 348 351 352 353 351 353 356 356 359 357 344 342 344 331 323 297 241 245 286 29 110 239 221 310 310 324 345 352 351 7 15 15 34 41 51 47 28 49 51 41 59 3 49 85 295 47 64 322 261 219 179 233 285 227 193 142 119 134 177 199 149 144 240 210 187 218 225 238 241 200 176 174 166 159 162 168 171
342 343 342 341 341 341 340 340 339 340 340 341 343 346 347 346 347 349 350 353 354 343 335 343 328 308 332 242 246 8 71 242 267 238 291 314 290 324 349 345 6 4 4 30 31 57 67 39 59 103 77 67 219 163 265 309 24 82 72 296 205 185 222 266 296 191 148 163 197 176 141 154 185 232 168 207 232 235 321 260 159 150 157 155 153 164 174 175
334 335 334 335 334 334 335 334 335 335 335 335 337 340 341 341 340 343 345 346 350 342 330 337 319 255 132 115 175 20 347 241 244 291 295 308 287 317 340 346 11 4 34 40 32 100 93 51 87 144 75 77 174 114 345 346 24 74 142 251 212 205 245 271 303 254 193 211 194 124 166 211 202 190 172 230 235 215 55 103 128 136 144 156 166 172 177 176
327 327 329 330 328 330 330 331 332 330 332 332 332 335 337 337 335 338 339 340 346 339 325 336 314 233 217 121 90 24 287 222 200 314 311 296 288 326 342 17 21 20 60 53 44 84 84 79 174 171 134 161 157 81 348 17 349 181 167 219 241 268 280 286 248 240 223 228 130 149 228 263 253 289 271 248 219 142 108 113 129 140 150 169 174 177 179 177
321 321 323 325 326 327 327 328 329 328 329 328 329 332 333 334 332 334 335 336 340 333 323 330 307 233 219 163 81 29 252 190 233 308 332 308 300 344 12 34 25 36 71 63 52 60 85 167 171 143 131 132 136 133 331 78 151 190 176 222 237 279 294 266 239 256 244 246 179 187 243 279 347 302 264 268 153 137 124 126 150 154 165 177 176 183 181 182
314 316 317 319 322 323 323 325 325 326 326 326 328 329 330 331 330 331 331 332 336 329 318 322 297 227 208 136 111 210 222 163 202 338 345 318 43 34 37 34 25 53 79 77 72 70 101 158 146 122 117 129 132 75 267 160 126 159 166 277 290 316 304 234 256 278 57 239 186 174 250 288 34 252 241 214 149 153 139 150 172 170 178 180 179 185 184 192
306 310 312 314 316 318 320 321 322 324 323 324 325 326 329 329 328 328 328 330 332 321 313 319 263 215 191 87 163 211 204 178 199 20 358 18 88 66 46 33 31 55 76 93 101 98 110 151 128 100 355 146 135 28 163 159 108 126 76 326 304 351 358 248 259 262 168 202 175 149 280 269 203 231 243 148 154 148 143 164 181 182 187 185 187 189 193 200
302 305 308 310 311 314 316 318 320 321 320 321 322 325 327 326 326 325 325 327 325 311 314 316 250 222 174 313 228 205 201 194 197 193 39 48 91 75 47 37 47 58 68 98 116 114 113 148 112 105 123 107 118 247 109 58 63 182 60 60 316 358 355 254 76 87 156 183 172 146 286 266 223 231 235 145 153 138 153 183 188 192 195 192 196 194 201 207
302 302 306 309 311 312 313 316 318 318 319 319 321 323 325 326 324 322 323 325 316 294 312 313 235 203 161 262 246 210 213 199 192 208 104 57 89 91 45 40 64 71 71 89 106 108 106 115 93 93 94 85 122 200 41 10 23 21 8 53 18 360 292 282 316 142 161 185 135 134 251 269 258 247 207 171 167 158 176 198 193 199 201 197 203 200 207 211
303 302 304 307 309 311 312 314 316 318 318 318 321 323 324 325 321 320 323 321 301 277 309 298 196 152 84 281 269 232 226 209 211 221 162 45 73 93 39 54 95 84 77 85 94 97 93 95 84 76 338 9 49 56 17 349 8 29 340 309 343 349 274 301 288 170 184 327 55 138 226 272 276 270 211 178 178 177 187 200 200 205 204 201 205 203 210 215
307 304 303 304 307 310 311 312 315 317 318 319 322 322 324 324 318 320 323 313 279 270 298 212 190 142 59 274 281 265 232 213 216 223 222 320 45 71 66 88 99 83 85 89 91 92 70 70 69 59 154 47 64 78 39 6 347 3 43 255 282 269 295 318 316 222 228 83 332 199 229 278 275 273 222 184 185 193 200 207 209 210 207 204 206 205 209 211
311 307 304 304 305 308 310 312 315 317 318 320 323 323 325 322 316 320 327 312 279 253 207 171 172 139 285 252 266 289 241 197 197 207 225 241 35 57 95 97 83 80 88 82 86 80 39 50 58 318 50 52 73 86 41 350 308 321 11 255 258 248 269 305 305 326 35 162 221 226 229 258 262 248 180 193 195 198 209 216 215 214 209 207 206 207 209 209
312 310 308 305 303 307 311 312 315 318 319 321 325 325 323 318 314 319 324 327 67 109 112 92 102 108 282 258 226 264 198 170 184 195 223 202 46 68 107 106 102 83 54 37 44 48 13 25 58 359 14 13 45 87 107 249 220 231 255 256 283 275 237 255 270 304 28 247 231 222 235 255 265 264 211 199 201 204 215 220 218 214 208 207 209 209 211 212
312 312 311 308 304 305 308 312 316 320 321 322 327 328 323 321 324 312 331 75 112 134 201 223 151 158 254 277 267 174 108 139 175 207 195 150 115 102 99 91 95 89 59 25 338 21 58 28 53 75 298 263 202 153 186 210 179 185 202 192 232 269 260 237 235 269 8 317 260 235 235 253 267 271 254 210 203 214 224 227 227 216 207 208 211 214 211 215
313 313 313 311 305 302 306 312 315 320 325 330 337 342 343 354 355 333 337 331 208 198 242 227 204 226 268 290 282 152 137 176 198 202 162 154 145 122 91 51 49 58 97 174 261 20 85 92 235 219 231 227 216 189 171 169 140 135 147 178 227 241 269 258 225 288 18 253 268 248 237 254 262 268 266 225 200 224 229 231 233 214 208 212 211 216 214 216
312 312 314 313 308 303 304 310 314 319 326 336 348 356 28 121 343 313 322 300 261 225 255 240 206 253 265 264 264 162 130 296 283 187 162 166 125 143 255 27 79 355 276 185 217 13 64 201 234 227 225 213 194 161 124 117 109 100 163 221 268 233 257 271 252 314 2 166 267 273 254 256 256 265 269 237 203 228 223 224 233 217 212 217 213 218 217 214
309 309 312 312 309 305 304 310 314 317 321 335 355 17 153 157 190 241 336 301 290 268 244 257 226 263 259 234 234 130 87 294 301 276 175 146 77 188 245 60 138 207 299 116 115 2 8 245 240 229 191 116 90 110 103 105 116 100 143 194 277 249 273 292 316 355 10 170 273 290 277 263 259 263 264 250 232 240 229 220 229 217 213 219 216 219 214 208
305 307 313 314 311 306 305 312 313 314 318 332 353 22 147 132 150 166 112 287 291 291 244 250 218 237 258 244 206 153 149 224 268 275 179 146 97 194 166 114 153 182 105 162 169 168 249 251 245 199 140 110 80 85 99 92 119 146 150 177 260 271 301 286 311 343 310 235 270 287 281 264 256 258 261 258 245 250 246 231 230 217 216 221 217 215 209 205
303 307 315 319 314 308 308 317 314 313 318 328 344 349 165 155 140 130 10 290 288 291 257 226 205 203 207 204 175 157 169 205 208 258 176 148 141 161 162 153 149 185 230 192 169 196 238 243 168 115 119 129 132 142 136 150 262 248 198 201 240 258 238 238 293 328 316 305 310 311 294 270 238 244 259 282 306 270 252 236 240 230 224 229 221 216 212 207
298 304 315 319 315 312 314 319 322 333 329 328 337 83 137 163 159 111 18 2 287 296 288 231 223 206 184 126 147 161 147 222 218 237 180 154 152 147 176 160 156 213 219 159 153 230 260 243 137 125 108 126 156 199 192 176 216 296 234 212 228 243 251 273 334 348 346 327 338 11 321 284 232 227 259 289 325 285 252 226 243 237 223 226 226 221 213 208
296 303 316 316 313 319 319 309 330 348 337 328 194 164 132 166 192 171 59 40 286 276 277 208 192 179 169 121 140 155 117 285 273 103 119 154 171 142 143 159 41 215 180 138 156 233 265 15 88 138 145 137 168 235 235 171 140 300 253 203 206 191 195 296 354 357 302 260 301 55 292 273 274 192 254 263 270 278 272 258 254 241 219 218 226 224 209 203
296 307 320 311 308 325 328 286 317 334 339 330 236 208 177 165 199 219 40 14 282 237 156 232 256 151 170 190 103 143 185 275 348 62 78 89 273 89 152 213 130 207 182 133 239 244 157 77 56 104 119 138 183 244 227 156 128 245 230 131 124 123 154 194 121 250 243 272 298 173 178 274 275 234 251 250 250 273 275 271 267 247 226 224 228 223 208 204
293 307 321 310 302 316 304 292 308 319 111 351 26 209 185 161 196 68 62 289 274 177 130 262 86 114 147 55 70 111 219 288 103 238 359 67 328 72 182 226 179 189 184 141 225 262 135 155 181 144 120 179 206 227 196 158 145 239 202 125 113 124 156 159 145 231 269 10 294 216 153 279 271 242 286 269 226 254 261 261 264 252 230 227 230 223 211 206
293 302 318 318 308 305 291 285 287 272 331 15 95 207 166 173 190 65 93 239 269 54 78 59 124 72 38 81 49 58 331 342 138 255 335 68 67 72 169 211 150 155 174 144 222 259 124 197 194 152 157 214 212 226 191 164 177 202 147 109 74 76 85 94 129 223 30 332 271 228 165 241 273 221 121 85 204 234 246 253 259 258 243 229 228 223 210 205
288 295 309 311 301 301 296 286 276 266 280 306 240 181 154 159 104 102 214 240 257 230 98 117 179 162 99 122 269 302 212 259 267 345 6 65 13 35 124 173 99 118 354 354 265 260 319 262 189 155 181 192 144 93 96 125 141 136 110 72 33 36 48 51 59 69 36 276 274 235 178 193 282 240 161 177 204 206 219 244 261 266 263 242 226 218 206 203
278 289 296 287 282 293 304 306 318 298 261 245 185 159 132 53 89 165 225 237 256 246 149 178 207 123 136 157 209 214 176 273 264 136 139 177 19 36 82 160 86 79 351 325 286 301 341 285 216 229 165 132 100 78 45 54 98 108 88 58 14 341 14 20 355 43 344 257 279 266 180 186 249 248 197 237 250 216 203 222 244 253 262 248 224 215 208 205
267 281 289 279 270 272 274 277 331 338 253 179 152 130 98 46 216 196 227 263 261 218 172 187 205 159 170 170 202 185 169 233 212 164 165 160 174 183 194 194 164 92 305 253 270 332 305 225 229 268 172 140 111 84 18 360 46 95 96 80 53 323 346 344 311 67 229 250 261 169 163 212 248 243 230 245 254 239 217 218 235 249 263 255 221 216 213 198
255 268 289 280 263 260 268 268 290 324 234 159 136 66 87 204 231 183 188 230 226 210 146 126 125 146 146 140 234 198 162 217 194 165 171 137 179 233 247 218 172 171 252 213 272 339 295 288 160 163 250 177 152 157 210 255 147 146 149 134 141 153 353 270 273 277 268 272 257 173 151 262 272 258 226 229 234 230 224 231 240 247 259 256 228 212 210 196
255 258 277 275 263 258 266 264 261 291 268 161 100 74 127 227 233 162 195 222 229 356 54 102 100 113 150 187 231 192 178 228 176 149 176 130 162 239 241 225 195 148 120 145 190 188 247 285 215 176 232 180 177 194 166 141 148 173 156 139 157 157 172 224 233 243 274 293 263 200 179 244 270 281 215 220 235 237 236 250 260 266 256 250 238 214 204 198
257 250 259 261 256 251 250 252 251 255 260 160 109 131 206 222 201 166 206 211 209 319 40 52 90 111 225 257 257 218 207 233 155 133 179 177 185 211 201 203 195 157 130 167 226 165 214 266 251 200 293 163 178 219 110 113 136 201 129 117 180 185 168 209 216 196 259 317 279 210 217 234 235 269 245 229 246 247 252 265 265 269 259 231 236 225 204 201
249 240 246 242 244 246 236 232 235 235 229 140 138 208 224 218 175 184 202 175 180 157 116 20 87 138 248 270 249 237 211 222 160 146 204 208 216 217 199 206 190 179 177 177 197 168 197 272 286 32 350 163 173 199 115 141 186 167 140 174 216 185 128 127 269 20 63 297 274 247 255 274 311 284 257 192 222 240 252 259 250 254 255 219 234 229 205 204
233 228 237 228 237 238 220 209 209 215 214 138 189 220 218 209 188 181 178 158 164 134 133 209 203 175 219 240 225 207 172 199 179 169 208 214 233 209 197 238 195 188 197 188 200 209 187 264 277 110 198 245 178 156 59 24 131 130 184 210 196 132 94 101 241 344 31 251 273 283 268 279 295 287 290 113 196 245 248 246 247 252 234 226 239 231 210 206
222 221 236 225 226 221 204 198 192 188 131 149 223 237 211 196 203 178 161 148 139 134 156 213 214 181 198 215 228 183 169 193 178 175 201 208 245 194 165 209 204 194 203 188 205 241 157 242 279 95 200 282 25 111 99 346 85 132 202 215 121 141 162 112 152 238 252 236 273 282 280 278 249 248 270 196 193 229 240 239 243 239 225 229 239 230 210 202
210 212 249 221 217 213 200 190 177 167 151 194 225 240 210 203 223 196 179 161 136 157 185 222 220 194 194 188 187 173 183 194 173 179 203 193 234 203 162 197 203 195 202 174 185 229 120 208 262 3 246 280 36 173 190 210 39 67 273 313 29 161 173 161 155 179 188 211 268 287 293 281 230 200 249 238 197 201 221 232 231 226 225 226 231 223 205 200
189 203 274 192 194 195 183 172 163 169 206 214 225 234 201 217 239 230 211 191 172 179 199 218 207 210 219 193 189 187 194 204 178 186 224 197 222 237 198 198 166 158 182 138 173 194 104 195 232 300 331 226 196 210 196 184 166 156 189 204 233 167 114 209 219 140 146 188 242 270 281 277 255 168 213 228 201 196 207 219 221 220 227 228 224 217 205 202
160 218 254 173 179 176 161 155 180 193 218 241 247 250 279 266 226 242 237 206 212 238 170 180 196 208 210 198 207 180 170 207 191 193 238 217 220 241 211 188 155 143 119 84 176 199 154 185 204 195 232 219 215 236 196 188 175 177 193 193 192 170 120 207 246 215 157 189 209 180 261 275 270 140 186 210 193 200 207 216 219 216 225 228 223 217 207 203
158 221 173 163 173 167 155 170 205 187 225 239 243 253 245 227 217 241 241 201 217 261 316 204 211 210 205 190 190 172 167 200 202 202 240 226 217 229 210 172 152 149 145 139 200 195 121 114 206 230 234 229 247 341 106 205 159 201 219 193 178 168 155 191 228 226 171 202 203 107 265 271 260 137 175 198 186 207 214 211 216 219 225 227 224 221 211 207
195 202 131 162 171 164 155 202 205 197 228 229 241 261 234 226 234 223 213 199 204 212 224 238 210 209 227 193 158 183 192 205 205 198 221 237 228 229 194 154 147 148 143 137 159 125 92 118 210 260 284 319 341 8 55 43 44 250 242 186 171 198 198 204 220 189 150 212 182 99 251 260 260 119 179 208 189 229 231 207 215 225 228 231 227 219 212 208
189 173 102 169 175 170 170 203 201 212 224 226 241 245 239 245 233 224 213 205 204 194 216 234 212 213 235 184 178 207 196 205 223 205 205 228 243 237 171 155 157 168 183 195 177 170 185 170 161 252 293 306 308 333 352 330 193 224 239 184 194 217 209 195 57 120 234 221 166 142 248 252 260 82 142 193 244 252 245 215 219 231 230 231 229 218 209 197
161 155 94 179 184 188 204 209 193 209 218 221 233 237 242 258 238 224 221 218 217 194 218 242 219 205 217 178 207 226 201 215 235 220 211 225 257 315 164 173 182 187 210 261 155 161 181 177 168 206 236 244 249 251 237 217 190 221 243 199 208 216 202 198 199 192 235 223 157 193 244 255 275 271 237 215 246 255 252 227 221 235 236 232 224 213 207 192
165 175 155 177 196 208 227 225 193 207 214 216 227 230 230 241 252 220 208 221 231 213 235 270 209 194 211 198 225 237 226 230 235 238 239 225 244 321 211 197 204 202 349 23 145 151 154 190 201 216 225 231 243 247 189 126 149 203 218 214 217 217 208 213 221 209 225 223 194 229 244 262 276 269 261 259 259 263 266 256 244 238 233 228 221 213 204 195
189 203 179 166 183 216 226 225 209 213 202 189 203 213 218 231 247 235 198 205 210 203 228 255 217 213 218 207 220 236 231 230 232 241 245 236 238 299 337 210 234 257 360 20 175 150 123 222 221 225 231 236 249 252 187 137 191 211 209 220 225 220 211 212 223 223 215 206 239 245 247 254 262 263 266 268 266 268 271 268 260 246 232 220 215 206 194 194
196 217 185 173 177 195 208 211 204 205 199 185 198 216 220 225 229 223 207 192 190 192 206 231 223 223 224 210 210 232 230 228 233 236 239 236 216 240 335 341 244 234 99 348 262 161 162 235 233 231 240 244 253 254 212 172 228 228 214 227 227 219 213 213 226 228 216 214 243 250 250 250 255 260 264 265 264 266 271 274 264 242 231 213 201 194 192 196
201 266 200 186 199 198 200 205 199 198 203 201 207 219 224 229 229 220 183 150 216 201 197 223 230 225 224 218 212 227 227 227 234 234 231 230 202 154 226 252 261 38 143 199 274 186 172 242 241 238 250 251 251 252 230 213 246 251 245 243 235 223 219 222 230 231 222 228 244 251 256 258 258 259 262 266 267 268 276 283 271 245 232 212 202 203 202 201
197 216 193 190 216 209 203 204 193 194 207 205 210 221 224 231 235 228 186 184 214 204 192 223 235 226 211 213 218 230 230 227 235 239 215 197 199 172 202 226 217 49 209 212 248 229 209 234 239 238 253 254 252 251 232 223 240 249 255 255 247 235 232 236 237 231 226 237 245 252 260 262 261 260 262 268 272 275 276 273 268 262 248 221 212 214 208 204
218 203 165 169 216 205 200 200 189 197 209 202 210 221 221 228 232 231 217 204 214 214 198 216 233 233 197 204 218 230 235 232 239 250 223 178 200 204 206 213 189 166 207 210 182 200 207 225 251 209 239 253 258 250 214 209 233 249 254 255 249 238 235 242 242 222 217 233 246 254 256 256 260 267 269 266 266 265 264 263 263 264 250 221 219 222 213 207
228 203 157 185 221 200 198 205 193 199 209 204 210 216 218 227 230 228 234 226 220 223 216 212 226 228 205 216 222 228 236 239 246 256 248 210 220 228 224 218 196 182 183 186 185 186 184 206 225 198 233 256 264 154 141 130 182 252 248 247 246 242 239 246 251 236 221 224 236 245 246 250 260 274 275 270 265 257 255 256 255 255 246 220 220 222 215 209